TimeEDT,TemperatureF,Dew PointF,Humidity,Sea Level PressureIn,VisibilityMPH,Wind Direction,Wind SpeedMPH,Gust SpeedMPH,PrecipitationIn,Events,Conditions,WindDirDegrees,DateUTC
12:56 AM,75.9,72.0,87,30.05,1.5,SW,5.8,-,N/A,,Clear,220,2013-07-21 04:56:00
1:10 AM,75.2,71.6,89,30.03,10.0,SW,6.9,-,N/A,,Clear,230,2013-07-21 05:10:00
1:56 AM,75.0,72.0,90,30.04,10.0,Calm,Calm,-,N/A,,Clear,0,2013-07-21 05:56:00
2:42 AM,75.2,71.6,89,30.01,4.0,SW,8.1,-,N/A,,Haze,220,2013-07-21 06:42:00
2:56 AM,75.0,71.1,87,30.02,10.0,South,4.6,-,N/A,,Clear,190,2013-07-21 06:56:00
3:56 AM,75.0,69.1,82,30.01,10.0,SSW,3.5,-,N/A,,Clear,210,2013-07-21 07:56:00
4:23 AM,75.2,69.8,83,30.00,1.0,SSW,4.6,-,N/A,,Haze,210,2013-07-21 08:23:00
4:31 AM,75.2,69.8,83,30.00,3.0,SSW,5.8,-,N/A,,Haze,210,2013-07-21 08:31:00
4:35 AM,75.2,69.8,83,30.00,1.5,SSW,5.8,-,N/A,,Haze,210,2013-07-21 08:35:00
4:52 AM,75.2,69.8,83,29.99,2.0,SSW,4.6,-,N/A,,Haze,210,2013-07-21 08:52:00
4:56 AM,75.0,70.0,84,30.00,9.0,SW,4.6,-,N/A,,Clear,220,2013-07-21 08:56:00
5:56 AM,73.9,70.0,87,30.01,10.0,South,3.5,-,N/A,,Clear,180,2013-07-21 09:56:00
6:56 AM,73.9,71.1,91,30.02,10.0,Calm,Calm,-,N/A,,Scattered Clouds,0,2013-07-21 10:56:00
7:56 AM,75.9,71.1,85,30.03,10.0,WSW,8.1,-,N/A,,Clear,240,2013-07-21 11:56:00
8:51 AM,78.8,71.6,78,30.03,10.0,West,6.9,-,N/A,,Mostly Cloudy,260,2013-07-21 12:51:00
8:56 AM,77.0,72.0,84,30.04,10.0,West,6.9,-,N/A,,Mostly Cloudy,260,2013-07-21 12:56:00
9:56 AM,77.0,72.0,84,30.04,10.0,West,6.9,-,N/A,,Overcast,260,2013-07-21 13:56:00
10:56 AM,77.0,72.0,84,30.05,10.0,WSW,5.8,-,N/A,,Overcast,240,2013-07-21 14:56:00
11:26 AM,78.8,71.6,78,30.04,10.0,WSW,8.1,-,N/A,,Overcast,240,2013-07-21 15:26:00
11:56 AM,80.1,72.0,76,30.04,10.0,WSW,9.2,-,N/A,,Overcast,240,2013-07-21 15:56:00
12:24 PM,80.6,71.6,74,30.04,10.0,SW,6.9,-,N/A,,Overcast,230,2013-07-21 16:24:00
12:56 PM,81.0,73.0,77,30.04,10.0,SSW,4.6,-,0.00,,Overcast,200,2013-07-21 16:56:00
1:56 PM,84.0,73.0,69,30.01,10.0,SSW,6.9,-,N/A,,Mostly Cloudy,200,2013-07-21 17:56:00
2:56 PM,81.0,75.9,85,30.00,10.0,South,8.1,-,0.00,,Overcast,180,2013-07-21 18:56:00
3:36 PM,84.2,75.2,74,29.98,10.0,South,11.5,-,N/A,,Mostly Cloudy,190,2013-07-21 19:36:00
3:44 PM,82.4,73.4,74,29.97,10.0,South,10.4,-,N/A,,Mostly Cloudy,180,2013-07-21 19:44:00
3:56 PM,82.0,73.9,76,29.98,10.0,South,6.9,-,N/A,,Mostly Cloudy,190,2013-07-21 19:56:00
4:56 PM,84.0,73.9,72,29.96,10.0,South,12.7,21.9,N/A,,Scattered Clouds,180,2013-07-21 20:56:00
5:56 PM,82.0,73.9,76,29.96,10.0,SSW,11.5,18.4,N/A,,Scattered Clouds,210,2013-07-21 21:56:00
6:56 PM,81.0,73.9,79,29.96,10.0,South,9.2,-,N/A,,Partly Cloudy,190,2013-07-21 22:56:00
7:56 PM,79.0,73.9,84,29.97,10.0,South,5.8,-,N/A,,Clear,170,2013-07-21 23:56:00
8:56 PM,78.1,73.9,87,29.99,10.0,South,4.6,-,N/A,,Partly Cloudy,190,2013-07-22 00:56:00
9:56 PM,77.0,73.9,90,30.00,10.0,SSW,4.6,-,N/A,,Partly Cloudy,210,2013-07-22 01:56:00
10:56 PM,77.0,73.9,90,30.00,10.0,Variable,4.6,-,N/A,,Mostly Cloudy,0,2013-07-22 02:56:00
11:56 PM,75.9,73.9,94,30.00,10.0,South,4.6,-,N/A,,Clear,190,2013-07-22 03:56:00